Regional Weather Roundup
Issued by NWS

Home | Current Version | Previous Version | Graphics & Text | Print | Product List | Glossary On
Versions: 1 2 3 4 5 6 7 8 9 10 11 12 13 14 15 16 17 18 19 20 21 22 23 24 25 26 27 28 29 30 31 32 33 34 35 36 37 38 39 40 41 42 43 44 45 46 47 48 49 50
364
ASUS45 KCYS 121410
RWRWY

WYOMING REGIONAL WEATHER ROUNDUP
NATIONAL WEATHER SERVICE CHEYENNE WY
700 AM MST TUE DEC 12 2017

NOTE:  "FAIR" INDICATES FEW OR NO CLOUDS BELOW 12,000 FEET
WITH NO SIGNIFICANT WEATHER AND/OR OBSTRUCTIONS TO VISIBILITY.

WYZ001-121500-
YELLOWSTONE NATIONAL PARK

CITY           SKY/WX    TMP DP  RH WIND       PRES   REMARKS
LK YELLOWSTONE   N/A      4   1  88 NW3       30.55S
W YELLOWSTONE  NOT AVBL

$$
WYZ002>013-054>058-071-098>099-121500-
NORTHERN WYOMING

CITY           SKY/WX    TMP DP  RH WIND       PRES   REMARKS
JACKSON        FAIR       7   4  87 NE5       30.58R WCI  -2
CODY           FAIR      25  17  72 CALM      30.32F
GREYBULL       FAIR      13   9  84 CALM      30.36F
WORLAND        FAIR      15  13  91 CALM      30.35S
SHERIDAN       FAIR      27  16  63 S3        30.21S
BUFFALO        FAIR      48   8  19 S3        30.24S
GILLETTE       FAIR      38  17  42 CALM      30.21F
HULETT         FAIR      36  18  48 SW13      30.21F WCI  27
NEWCASTLE      FAIR      21  14  73 CALM      30.26F

$$
WYZ014>020-022>026-101>103-121500-
CENTRAL WYOMING

CITY           SKY/WX    TMP DP  RH WIND       PRES   REMARKS
BIG PINEY      FAIR      16   4  59 NW6       30.48S WCI   7
PINEDALE       FAIR      14   9  79 S3        30.49R
DUBOIS         FAIR      32   3  29 NW20      30.43R WCI  20
LANDER         FAIR      22  16  78 W3        30.37F
RIVERTON       FAIR      15  12  88 NE3       30.39S
CASPER         FAIR      35  15  44 SW16G25   30.33F WCI  25
DOUGLAS        FAIR      23  18  81 NW3       30.30F

$$
WYZ021-027>030-104>119-121500-
SOUTHERN WYOMING

CITY           SKY/WX    TMP DP  RH WIND       PRES   REMARKS
EVANSTON       FAIR      31  12  45 S7        30.51F WCI  24
FORT BRIDGER   FAIR      36  10  34 W10       30.52S WCI  29
ROCK SPRINGS   FAIR      25   6  44 CALM      30.48F
DIXON          FAIR       9   5  84 CALM      30.55S
RAWLINS        FAIR      24  11  57 CALM      30.47S
SARATOGA       FAIR      19  12  73 CALM      30.49R
LARAMIE        FAIR      25  12  58 SW6       30.40F WCI  18
CHEYENNE       FAIR      38  15  39 W8        30.32F WCI  32
TORRINGTON     FAIR      22  16  78 NW8       30.29F WCI  12
PINE BLUFFS    FAIR      21  14  73 S7        30.33S WCI  13

$$




USA.gov is the U.S. government's official web portal to all federal, state and local government web resources and services.